This is the latest recevied weather packets stored in our database for station/object KG4ZVW. If no packets are shown the sender has not sent any weather packets the latest 10 day(s).
| Time | Temp. | Humidity | Pressure | Rain* | Wind** | Luminosity | Snow |
|---|---|---|---|---|---|---|---|
| 1777420112 | 25° C | 74% | 1017.7 hPa | 0 mm | - | 9 W/m² | - |
| 1777419808 | 25° C | 74% | 1017.7 hPa | 0 mm | - | 11 W/m² | - |
| 1777419503 | 25° C | 74% | 1017.6 hPa | 0 mm | - | 19 W/m² | - |
| 1777419218 | 25.56° C | 74% | 1017.6 hPa | 0 mm | - | 23 W/m² | - |
| 1777418913 | 25.56° C | 74% | 1017.6 hPa | 0 mm | - | 51 W/m² | - |
| 1777418612 | 25.56° C | 73% | 1017.4 hPa | 0 mm | - | 47 W/m² | - |
| 1777418308 | 25.56° C | 73% | 1017.4 hPa | 0 mm | - | 65 W/m² | - |
| 1777418003 | 25.56° C | 72% | 1017.4 hPa | 0 mm | - | 95 W/m² | - |
| 1777417718 | 25.56° C | 72% | 1017.5 hPa | 0 mm | - | 102 W/m² | - |
| 1777417412 | 26.11° C | 72% | 1017.5 hPa | 0 mm | - | 114 W/m² | - |
| 1777417109 | 26.11° C | 70% | 1017.5 hPa | 0 mm | - | 95 W/m² | - |
| 1777416808 | 26.11° C | 71% | 1017.4 hPa | 0 mm | - | 139 W/m² | - |
| 1777416503 | 26.11° C | 69% | 1017.4 hPa | 0 mm | - | 155 W/m² | - |
| 1777416219 | 26.11° C | 70% | 1017.4 hPa | 0 mm | - | 169 W/m² | - |
| 1777415911 | 26.11° C | 70% | 1017.6 hPa | 0 mm | - | 186 W/m² | - |
| 1777415606 | 26.11° C | 70% | 1017.6 hPa | 0 mm | - | 204 W/m² | - |
| 1777415319 | 26.11° C | 70% | 1017.6 hPa | 0 mm | - | 220 W/m² | - |
| 1777415015 | 26.11° C | 70% | 1017.6 hPa | 0 mm | - | 237 W/m² | - |
| 1777414714 | 26.11° C | 70% | 1017.6 hPa | 0 mm | - | 267 W/m² | - |
| 1777414410 | 26.67° C | 70% | 1017.6 hPa | 0 mm | - | 285 W/m² | - |
| 1777414104 | 26.67° C | 71% | 1017.9 hPa | 0 mm | - | 302 W/m² | - |
| 1777413820 | 26.67° C | 71% | 1017.9 hPa | 0 mm | - | 329 W/m² | - |
| 1777413516 | 26.67° C | 71% | 1017.9 hPa | 0 mm | - | 95 W/m² | - |
| 1777413211 | 27.22° C | 70% | 1018.1 hPa | 0 mm | - | 355 W/m² | - |
| 1777412907 | 27.22° C | 68% | 1018.1 hPa | 0 mm | - | 388 W/m² | - |
* Rain latest hour (hover to see other rain measurements)
** Current wind speed in m/s (hover to see current wind gust speed)